TIMESTAMP,CO2_1_1_1,H2O_1_1_1,TAU_1_1_1,TAU_SSITC_TEST_1_1_1,H_1_1_1,H_SSITC_TEST_1_1_1,LE_1_1_1,LE_SSITC_TEST_1_1_1,FC_1_1_1,FC_SSITC_TEST_1_1_1,WD_0_0_1,WS_0_0_1,WS_MAX_0_0_1,U_SIGMA_0_0_1,V_SIGMA_0_0_1,W_SIGMA_0_0_1,USTAR_0_0_1,MO_LENGTH_0_0_1,ZL_0_0_1,FETCH_MAX_0_0_1,FETCH_70_0_0_1,FETCH_80_0_0_1,FETCH_90_0_0_1,PA_0_0_1,RH_0_0_1,TA_0_0_1,VPD_0_0_1,T_SONIC_0_0_1,T_SONIC_SIGMA_0_0_1
[yyyymmddHHMMSS],[mmolCO2 mol-1],[mmolH2O mol-1],[kg m-1 s-2],[#],[W m-2],[#],[W m-2],[#],[umolCO2 m-2 s-1],[#],[Decimal degrees],[m s-1],[m s-1],[m s-1],[m s-1],[m s-1],[m s-1],[m],[#],[m],[m],[m],[m],[kPa],[%],[deg C],[hPa],[deg C],[deg C]
20211026003000,417.84152332146135,6.9052089237533032,0.20829172993135114,0,-12.661102656695435,1,14.965946876291307,2,0.77377690548260625,0,23.718819171554060,2.2451607673573535,6.0365959201962029,1.0221540903543287,0.49964811213339350,0.44243283652613880,0.41914292621126170,486.55706869979008,3.9049889976468855E-002,119.91312775514876,219.23944186696752,262.37361737999606,328.46063457370064,94.415765976323655,82.955517241379312,3.5562068965517142,1.3399123007495144,3.1153111507125573,6.2646732165485594E-002
20211026010000,417.94342898167781,7.0764508986645032,0.12358581886081133,0,-3.4303950253163253,1,-2.7161632281091435,2,0.39307591613912030,1,22.709648404203989,1.9500873261958647,4.7258608796047543,0.80243241466015480,0.48265832438212414,0.37723828644483920,0.32280221243030083,820.41259765070663,2.3159078803040654E-002,110.53797166316627,202.09866647814701,241.86048705469739,302.78062958302229,94.426789765842017,85.503333333333330,3.4763333333333435,1.1332149857509091,3.0685520579020249,8.2698597583477390E-002
20211026013000,418.39475680276348,7.1126902688729770,0.10744607824209636,0,-7.1801308767599359,1,-1.2539171476649273,1,0.71843834348266178,0,28.711624895690647,1.9957234950481286,4.2932192376632798,0.62823300369230817,0.38365843996265508,0.31926801095684554,0.30074732037047275,316.99245004694677,5.9938336061903331E-002,119.36911876657776,218.24481993309172,261.18330895513321,326.97050967290835,94.429582981987849,88.633333333333340,3.0406666666666524,0.86157777977050276,2.6905950588650853,0.14453927972857364
20211026020000,418.81480888963648,7.0861118275697343,5.1339312050535650E-002,0,-10.706782917302977,1,-1.0725451457513597,0,0.95485782471510094,0,41.460170917054995,1.9668818042719260,3.9288736425906392,0.54961756715245447,0.53104723137119658,0.33085787496417712,0.20773457211855614,70.055331021735455,0.27121419202351688,86.287670156881376,157.76138108767984,188.80008034300323,236.35529675689313,94.430287689722846,90.879999999999995,2.6353333333333353,0.67167984053070084,2.3018265936434545,0.13379565689300013
20211026023000,419.40326897947477,7.0756987832578444,5.6959073334027353E-002,0,-18.957322075420478,0,-1.3366500762629940,0,1.1864377743715853,0,41.321340491505850,1.6748510611279450,3.8640995071338806,0.58420074885205886,0.41329233047681058,0.29506174433386551,0.21870194131533263,46.170978056344900,0.41151391631369144,98.538667652070274,180.16011176413411,215.60564024708108,269.91267689334597,94.435346839192704,92.406666666666666,2.3813333333333162,0.54922406224526643,2.0761761203341962,0.14829450536378544
20211026030000,419.92603681745027,7.0347067689751483,8.8854669517442919E-002,0,-24.791540836876617,0,0.29563428935455693,0,2.0124903571289123,0,43.338258769728697,1.9323578917469728,4.3494496768741051,0.66387964959779566,0.44854752615687027,0.34575778927015727,0.27308112421333597,68.729849665042437,0.27644466112754834,103.67419390438378,189.54949164545431,226.84232988393842,283.97967892459246,94.432192565972215,92.900000000000006,2.2246666666666783,0.50783799060741674,1.9117265489366559,0.14652419613425258
20211026033000,420.09560743965756,6.9906841192928484,0.13148247836220162,0,-25.633361739667539,0,-1.8328864285657470E-002,2,1.6633929042971360,0,47.232436438614911,2.2825926307720166,5.2445078537355148,0.70956534154352102,0.58460370023033681,0.41719480141520826,0.33226209533553291,119.71383501390707,0.15871181470205831,104.36825659725854,190.81845960797176,228.36096043613190,285.88082416868173,94.412831421223970,91.846666666666664,2.2936666666666952,0.58605581393701411,1.9460609944661655,0.13197114143862476
20211026040000,420.39886540187570,6.8667460034530814,0.15869083939759157,0,-26.622465056365535,0,18.656676666554194,1,2.3285709529021443,0,52.616355231657607,2.2733339356785414,5.8746385841961626,0.81202296711424260,0.75590480142784922,0.48164757580440654,0.36514112275866023,152.96012730557320,0.12421537778955367,100.33212119767661,183.43911683817350,219.52977185112482,274.82522400721291,94.396046263671877,89.313333333333333,2.4326666666666483,0.77579545708442998,2.0372976633707935,0.10053491667222191
20211026043000,420.76603563095938,6.6730972162990465,7.1217001374863545E-002,0,-18.089749684149947,0,2.8902697413558021,0,1.2410636113776305,0,46.971461743898544,1.4567205756887460,4.2823658588928755,0.74174035224536528,0.50997636722941364,0.37586269022031271,0.24459394413215413,67.654205891785224,0.28083989383292779,88.794912919780316,162.34542050232477,194.28600474233042,243.22302312137990,94.383962847420037,87.120000000000005,2.3783333333333303,0.93140836772599533,2.0416854649769220,0.12049074546189201
20211026050000,421.10752920569126,6.6427377635189586,1.8457592512077719E-002,0,-10.263176874199376,0,-0.95182817616497883,1,0.89112940846518252,0,44.529706583769155,1.8738361918473980,3.2750012378776043,0.36701755758062271,0.34766815527737283,0.22214291096821129,0.12447144312981118,15.716324336940978,1.2089340734296754,318.73883067186148,3030.0000000000000,5604.0000000000000,-9999.,94.395124389973972,87.866666666666660,2.1963333333333139,0.86610217288778357,1.8531725641886396,0.14338423416748780
20211026053000,420.70916840378868,6.5743271209736829,0.10841046849839411,0,-27.328613112584186,0,1.8704209898899014,2,2.8812488152135840,0,44.287830084372445,2.1509893612229103,4.6679732873184197,0.69764407697235664,0.58047559332288790,0.38469152642331456,0.30155253003323113,83.924549258858576,0.22639382835880376,103.05170577263101,188.41138480820331,225.48030667629109,282.27458749217141,94.395166927083338,88.143333333333331,2.0073333333333494,0.83500809904253404,1.6572190899319139,0.18533741995349740
20211026060000,421.10255716112482,6.4905277072024523,5.0947294707089696E-002,0,-19.838200687775046,0,1.4061926832901110,1,1.5136811131111743,0,32.645574461278812,2.2869567152426749,4.9970364666787237,0.53345090265993822,0.34709855148838514,0.25941999958277545,0.20669417872117868,37.226353083002891,0.51039111883014865,104.40342178067283,190.88275277861311,228.43790294068472,285.97714705405212,94.382086461805557,87.663333333333327,1.9023333333333312,0.86231494167727984,1.5636436971029184,0.20587243113970435
20211026063000,422.69850246177566,6.5437059828705220,4.1575130474111134E-002,1,-8.5400293039768247,1,0.43275105710485889,2,0.23714854138345387,1,8.4451583728285868,1.0837005187075295,3.3751476567251677,0.40379262387109915,0.34076378710229216,0.17013948333989309,0.18659107350455464,63.627092843544069,0.29861493195548122,54.040964092821049,447.00000000000000,794.00000000000000,2026.0000000000000,94.400027887182972,90.480000000000004,1.5773333333333426,0.65012480426703745,1.2913118157375720,0.13037705973594527
20211026070000,422.03225258910538,6.5332752318672380,4.2223209736991341E-002,1,-4.5310848711670912,1,-0.53739676255218993,2,0.39560159295161201,1,326.81852491064666,0.93476811678764393,1.8307275814465047,0.35541237199454362,0.48087907517840650,8.8416925674007274E-002,0.18807295454005760,122.81621194699608,0.15470270332226049,42.403013331327351,324.00000000000000,564.00000000000000,1386.0000000000000,94.415219367690170,89.433333333333337,1.7196666666666829,0.72900084170433388,1.4512341189562221,0.13495630216153834
20211026073000,421.29859043718631,6.5178749835407714,1.5075626466547604E-003,0,0.25461090018786497,2,-1.0994667207634636,1,-0.11677526961466732,0,301.52620361892230,1.7892976022321416,2.1743369645985324,0.14028059081041019,0.15016631921619866,7.1055038249205213E-002,3.5537635406354878E-002,-14.746036993108566,-1.2884817804864783,586.60120596926606,1689.0000000000000,2277.0000000000000,3605.0000000000000,94.417937100149345,89.163333333333327,1.7293333333333294,0.74814612643729450,1.5389288841955135,0.15698438322333838
20211026080000,421.40045026597346,6.4323018766331277,1.6587626171901151E-002,0,-10.712298705788486,1,-1.5602377372707845,0,0.83540363799407458,1,296.73508842081230,2.0391060914229615,2.9329767005859413,0.27376322462081382,0.28513986401357183,0.14937432913993726,0.11782107128514886,12.773200650672408,1.4874893552227884,419.01010253783966,3994.0000000000000,7391.0000000000000,-9999.,94.428402028211806,89.523333333333341,1.4903333333333535,0.71100461512515722,1.2188927510579788,0.42722646281096410
20211026083000,422.66322521955863,6.4427519644257574,5.6371112166313945E-003,1,-5.1878854391620122,0,-0.18452790753914194,0,0.70062460134490057,0,320.51140424373926,2.2723611982206839,3.4208602100228163,0.29795331050325485,0.41305273222160016,0.13298119864586658,6.8611360071295466E-002,5.2086439092405463,3.6477824806361783,1517.7968000724497,-9999.,-9999.,-9999.,94.433295023220495,93.439999999999998,0.91833333333335077,0.42725194113401699,0.67644828287757264,0.22532308643406779
20211026090000,421.83311264412140,6.3806202515223589,4.1460585816082696E-002,0,-7.7646390316325755,1,0.86335462217671266,2,1.0694727292183964E-002,2,340.99754294726017,2.1962225368814066,3.5891185044679705,0.42424059335150477,0.32308969180733288,0.22890197952584121,0.18599768562017244,69.339242429406127,0.27401510795771655,176.32673550597747,1649.0000000000000,3036.0000000000000,8239.0000000000000,94.450420563585070,93.686666666666667,0.75000000000000000,0.40622271648369407,0.37561275566952190,0.19911903912432974
20211026093000,420.66368155948481,6.4298477382254413,3.9582091701766617E-002,0,-23.368211746031225,0,-2.7158238568191946,0,2.4216834748979417,0,348.56789286930552,1.9526469763433223,3.3559443860812093,0.45937462385681160,0.35953987222384903,0.23149765366806174,0.18184171021810561,21.533023654711425,0.88236563079439156,167.73522004022973,1524.0000000000000,2783.0000000000000,7443.0000000000000,94.470678822265626,91.913333333333327,1.1246666666666556,0.53457079608789970,0.75333385637077299,0.29332285326155239
20211026100000,422.17873621000876,6.4476196685912637,4.2541679778615990E-002,0,-8.1474365664070074,0,-0.41679037069133851,2,0.90916839905266045,1,25.696444181370708,1.8480155352470842,3.7623439895255304,0.50261451804534618,0.31915307609239640,0.25612841072142473,0.18849229778985813,68.781598919142638,0.27623667228695525,132.27892657390578,1200.0000000000000,2190.0000000000000,5851.0000000000000,94.459045416151596,92.879999999999995,1.0160000000000196,0.46700037574452608,0.63127018680404490,0.18940086642459267
20211026103000,422.16035017210783,6.4203517038477154,2.5901916254868037E-002,0,-14.107808722716490,0,-0.15023511080079535,2,2.1699100232547135,0,31.187160661649415,1.7979876296332562,3.6644130964067934,0.43195757783447397,0.25276834968374295,0.20430118374841194,0.14701649799035310,18.846538589521003,1.0081426841194236,214.81794928234467,1985.0000000000000,3641.0000000000000,9818.0000000000000,94.454143304470492,94.140000000000001,0.76966666666669425,0.37758934775319064,0.48526515028214590,0.16751085148611364
20211026110000,421.82050935421233,6.4670261232458230,2.3261362484681903E-002,1,0.54322078600809909,2,2.5100714648334899,1,0.18707327088094503,1,17.978142901463940,1.1999799605522918,2.6508639647396328,0.43169435385124849,0.26143309936503289,0.12060153199266781,0.13936509599945693,-416.96339097122404,-4.5567549601282023E-002,128.26009817130870,570.00000000000000,857.00000000000000,1632.0000000000000,94.458682180338542,93.603333333333339,0.94999999999998863,0.41756624301707235,0.62547651502825374,0.11743808047410993
20211026113000,420.86061707783460,6.5449889304559514,8.9439648419311520E-003,1,-2.8029529156932633,0,0.44983054595040556,1,-5.0160208363526006E-002,2,0.45297941245632956,1.2842740574963629,2.9891162433769591,0.39409596175619510,0.23774990706119326,0.12006609651279616,8.6446091471463274E-002,19.284458926511128,0.98524931772288038,304.56990615111840,2973.0000000000000,5541.0000000000000,-9999.,94.449073525964693,93.733333333333334,1.0956666666666592,0.41339539140285186,0.76532371801619092,0.13761636366028332
20211026120000,419.95803836919612,6.6041460313471552,3.5429689762885498E-002,0,-9.8482933328076854,0,0.41464255218612572,0,1.7300394548833231,0,16.963505966436628,1.8047490037570619,4.2733382233847985,0.52898260263206565,0.31405831397264927,0.24900852693891973,0.17205698211821502,43.274819483828509,0.43905440222807085,153.16621592139271,1444.0000000000000,2664.0000000000000,7258.0000000000000,94.445397692925340,94.620000000000005,1.0893333333333430,0.35474254609220907,0.70314171854658980,0.17565170022420878
20211026123000,421.72811158219616,6.4648629373760036,6.7092536677236497E-002,0,-4.1419302579345336,2,2.1787045929358833,2,0.38351585690351014,2,26.200274378612164,2.2070677234834233,4.0077500046710028,0.58710505967364013,0.33010107359419594,0.27061741790138499,0.23668107056965906,267.78916914307837,7.0951338550396703E-002,112.48668626294472,205.66153827718648,246.12433462799302,308.11846077822918,94.426320019965260,94.260000000000005,0.84366666666664969,0.37183761666033660,0.44648008134629436,0.19009865917978708
20211026130000,422.90962947967779,6.3965321730005158,5.0660509785852105E-002,0,-5.7305264784853778,1,-3.6120200235783013,1,2.4786326451904199,1,33.062722727375103,1.7135381423803724,3.5790053844605585,0.48698181939134455,0.28422085539013148,0.22483106091455798,0.20551820108341495,126.72611388367430,0.14992963500356896,116.53331042316749,213.06005784665484,254.97847294438225,319.20279128007428,94.429862420407332,95.826666666666668,0.46899999999999409,0.26312803199204721,5.1350278672089189E-002,0.13811475774297036
20211026133000,422.37088114709860,6.4933796379516480,0.10911338044775690,0,-5.7147888000608003,1,2.4862992297994433,1,4.3467578267076101,0,48.705240335611364,2.4411387853882172,4.6571183275199992,0.64177626876625893,0.49399926783550008,0.38327875452572308,0.30180022389213446,402.30303411105859,4.7228080300172219E-002,103.42338516653406,189.09093328132084,226.29355263951103,283.29267493484610,94.392364986328133,95.736666666666665,0.68433333333331348,0.27302041910392860,8.5348006354479367E-002,0.10282230546037599
20211026140000,421.11558877165493,6.5921107180818757,0.10003228544935397,0,10.424813577868788,1,7.1587029674863354,0,0.78529135872932632,0,56.991500836026404,2.0288634063716544,4.9157760921141325,0.73538494242169139,0.58041846201390246,0.41993256084547637,0.28931527736457574,-194.26972759227698,-9.7802165244583003E-002,92.941216649591780,169.92618611616942,203.35824502754886,254.58039140727800,94.378321427734377,93.023333333333341,1.2906666666666524,0.46673384757553893,0.62069159189854872,0.20528457689790050
20211026143000,420.97325159661693,6.7512471283125537,4.3098333798394978E-002,0,35.147337449600826,0,12.059493117443154,0,0.45744778233889666,0,63.381236330055003,1.8000514774646217,3.8562066641638819,0.60730149163547575,0.45382989012086256,0.34957926200878287,0.19017241145245703,-16.366707314777234,-1.1608932471618900,86.406468765470848,266.00000000000000,364.00000000000000,593.00000000000000,94.389169530164935,90.006666666666661,2.0853333333333239,0.70771491018354482,1.3628522694905314,0.30452861395084446
20211026150000,419.89968840627955,6.8571475538686899,0.16977833058221481,1,86.360732483514127,0,29.069452556536678,0,0.41890996531526120,2,52.656932569975339,1.5378186727960941,4.2734031713951222,0.71888469042983139,0.53463646470628290,0.44956244983010263,0.37806637925776121,-52.336925760311310,-0.36303240444451707,109.01275689193095,199.31008743402708,238.52327015191145,298.60283002929810,94.387957990885425,85.829999999999998,2.9716666666666356,1.0688267200974371,2.3124282972547689,0.34651030054739645
20211026153000,419.49661359255356,6.7871475730712296,0.21702085274094099,1,97.117630367835716,0,59.836447270194306,0,0.61150751428292049,2,42.521993322921503,1.1834665882620821,4.7503766692254281,0.71033339312897503,0.59260740225082520,0.48766452116861303,0.42820830853508718,-67.610044284398768,-0.28102333316152422,112.84492779047457,206.31651804478616,246.90817812564302,309.09973982303381,94.364447166449651,79.540666666666667,3.9003333333333217,1.6478376552367400,3.1840361302694191,0.38452666405802577
20211026160000,416.80756093947554,6.4205216827106160,0.21631259257034069,1,139.26572763346809,0,62.995536436250013,1,1.9645976526313980,1,60.281998327518480,2.3808851034470115,6.2110989521775837,1.0044389666785765,0.98291298683582795,0.59958497270632227,0.42798266621967662,-47.061718078475401,-0.40372516720102536,95.612627274280001,174.81037674081924,209.20337376556319,261.89779897906362,94.337649233723965,72.251999999999995,4.4743333333333339,2.3267710886823134,3.6140235010782931,0.37346198712853962
20211026163000,417.47438330740596,6.5688495533924076,0.42647133274428622,0,132.22323209653641,0,50.035199824364170,0,-1.5005519053594263,0,21.174341007233551,2.2041368510411870,6.9253672873944732,1.1008434932538507,0.91717618623657504,0.65461520646881388,0.60124599353789288,-137.42564596195098,-0.13825658134625415,116.97896768342758,213.87486145350340,255.95358475803502,320.42351555979036,94.329498756470613,72.662000000000006,4.7186666666666497,2.3319149835518522,3.9378136202784049,0.32536906132165250
20211026170000,416.05202905561873,6.4472997619579431,0.28478441406355159,1,88.177827268433987,0,35.518160762074118,0,-0.88442623834287537,1,16.926500103876776,2.0228545888700493,5.6317341061754060,0.83633102685723515,0.88276870318841216,0.54669102341418552,0.49157947150836889,-112.59977180634156,-0.16873924072135579,115.01019403708821,210.27531531984576,251.64584737295721,315.03073952838673,94.300274199435748,70.213333333333338,4.9376666666666438,2.5799400339169281,4.2266609276666145,0.36741982747149587
20211026173000,415.58085961897785,6.2854011858355738,0.28490015375242922,1,140.92691610413743,0,38.589776020174760,0,-1.1188563490630077,1,49.119304539091360,2.2192787025226548,6.3329567346830888,1.1627809859477098,1.0302849428621574,0.61032507262296498,0.49262916374908877,-70.870259408428382,-0.26809553342400194,105.49260711642761,192.87413095021876,230.82107400701491,288.96059443173107,94.235566061197929,64.250333333333330,5.8386666666666542,3.2965596433949633,4.9286371815999246,0.40799339796568274
20211026180000,415.28630560343839,6.2175538453592436,0.24273379319420629,1,153.06009663247386,1,62.360561166839950,1,-1.8867216484368063,1,37.935684043633586,2.2968748875074652,5.6774624322719989,1.0254416941540576,0.85321559713929807,0.53860766032297203,0.45521648509589141,-51.459226034995496,-0.36922436390859842,109.44886544785220,200.10743296394114,239.47748910632870,299.79739892848824,94.167355712673597,61.688666666666663,6.2596666666666465,3.6371255512280825,5.3253367716471303,0.43427976294121384
20211026183000,414.84146692831706,6.2692438445363914,0.35268007708309612,1,177.24941087514702,0,65.613217606618164,0,-0.45931859490995453,2,20.380624836963875,1.7880630445243508,5.1756977099322903,1.0672932196603766,0.79871157607425325,0.62700710402695292,0.54953489267778566,-78.152234422073846,-0.24311524987740479,112.67644833326493,206.00848386324003,246.53953988336002,308.63824848790074,94.124909988253251,59.214999999999996,6.9680000000000177,4.0654155913544674,6.0213035834884181,0.45253929951713801
20211026190000,414.71811319696832,6.2004914589534055,0.30073980335060529,1,192.43700239253758,0,46.923077395775373,0,-0.95334490418381246,1,25.810439003218988,1.8837852685199121,5.7312320798457117,1.0382001399108938,0.69338352208171150,0.57244163345720522,0.50803645003247333,-56.868798013867874,-0.33410236656253417,113.81141636660615,208.08356740767621,249.02288490231783,311.74710176719577,94.106108566406263,56.235666666666667,7.5579999999999927,4.5422274455573692,6.5532913453843662,0.45780871941407669
20211026193000,414.82510090770268,6.1510362030344954,0.28874647532703801,1,118.58464551538425,0,32.412829122865332,0,-1.4159962531021208,1,52.596704525881563,0.94767413314951998,6.5265104392204298,1.0751574171254956,1.0378842142580551,0.52522754362903878,0.49819483099709988,-87.008778838223748,-0.21836876983789050,120.03178904125865,219.45639254305252,262.63325192929398,328.78566622006520,94.080775906032983,54.377333333333333,7.9293333333333180,4.8565561395890633,7.0978910590278019,0.36965916898620910
20211026200000,414.93085791481047,6.0610225220875042,0.18237363138337850,1,106.87790570618077,0,28.745985142827458,1,-1.0183678471645659,0,91.867820839052541,1.3377306445093755,3.0492534269413105,0.58973469239835619,0.53950630679620382,0.47858393189415560,0.39615794083137684,-48.536681273566558,-0.39145651291876732,107.64233291255081,196.80451532540937,235.52474026994179,294.84902643557194,94.069581161241331,52.509666666666668,8.2246666666666783,5.1579549416930082,7.2847622417874049,0.30957438823194028
20211026203000,415.17269958413914,6.0592189617270611,9.4997827248052377E-002,0,23.879390631770516,0,9.6157069983614374,0,-7.4045203324404592E-003,2,59.696245272344939,1.9871255909704708,4.3193654902962537,0.82572093618486420,0.70030540484166270,0.42037536432564926,0.28580810930789358,-81.562651287301605,-0.23294975948088251,91.961221659633040,168.13444272115359,201.21398580136326,251.89603330314978,94.051467101504770,53.469999999999999,7.9510000000000218,4.9604556265746238,7.2849942816465045,0.12579054067625303
20211026210000,414.89547129349472,6.2199743528920202,0.16657197526507173,0,-2.0573589217534023,2,21.286999630028102,1,-0.46664371076772243,1,58.035526635031573,2.3880643729658964,5.0186982033823551,0.74409228130703153,0.62779011479359748,0.42244426293354065,0.37832530073882498,2195.3656053197919,8.6545949130110069E-003,114.63881162362723,209.59630982169341,250.83325121209285,314.01346556115283,94.027409259014917,55.960000000000001,7.6636666666666429,4.6039346222625408,7.1116054239452637,5.6313363243209034E-002
20211026213000,414.63021987920104,6.0956130278207361,0.23082147931608357,0,3.9157159221305160,1,33.850157500682634,1,0.29407697392249094,1,59.749113996013222,3.0653330676886275,6.4975748273687346,0.95400439717601160,0.78294008634013468,0.52978583499204057,0.44532666870620030,-1880.7046867129768,-1.0102596188669826E-002,108.97266930284248,199.23679453589256,238.43555727211179,298.49302391217793,93.992440737847232,55.279333333333334,7.5416666666666856,4.6363078719274275,6.9457098269992912,5.7221354230363279E-002
20211026220000,414.57994591914542,6.0779248350503963,0.15450628729322655,0,2.3585964148528507,0,11.249451942343759,0,-4.5310468330463212E-002,1,62.080949669077071,2.0467954584708425,5.3741543962265519,0.89549839017225796,0.60368268254537993,0.45070476025977585,0.36431050814216509,-1709.5779143192137,-1.1113854385259860E-002,105.61328285489775,193.09476468769495,231.08511624013107,289.29114397520129,94.002500876085080,55.209000000000003,7.5193333333333499,4.6365194908848721,6.9121812778049048,5.3534007794313158E-002
20211026223000,414.84780823675692,6.1702241830886377,0.19024138953871461,1,22.176376367601794,0,9.9104362527181422,0,-0.23735861501003552,2,92.247866830489883,1.0186125989047006,4.5020729342765460,0.63405051283704883,0.43235122117454683,0.41494420452192082,0.40447164086395065,-248.88189859263474,-7.6341429840580122E-002,122.67995238035995,224.29807971530798,268.42751489032548,336.03939587502094,94.027613754386110,54.658666666666669,7.8910000000000196,4.8140222277560518,7.0488501488864586,0.11148534053228391